User: anonymous   Login
Location: Hepcat Sky Observatory
(29.9800°N, 95.6500°W)
Time: 03:49:40
(UTC-06:00)
Language:

Cosmos 1602 Rocket - Orbit

View from above orbital plane
View from above orbital plane
View from above satellite
View from above satellite

Ground track
Ground track

The orbit data is extracted from the following two-line orbital elements,

1 15332U 84105B   17019.80144397  .00000086  00000-0  74806-5 0  9990
2 15332  82.5364 326.7668 0022228 136.5688 245.1873 14.83285755744592
Epoch (UTC): 19 January 2017 19:14:04
Eccentricity: 0.0022228
inclination: 82.5364°
perigee height: 603 km
apogee height: 634 km
right ascension of ascending node: 326.7668°
argument of perigee: 136.5688°
revolutions per day: 14.83285755
mean anomaly at epoch: 245.1873°
orbit number at epoch: 74459

The dashed part of the orbit path shows where the satellite is in the earth's shadow,  

DLR